Perry, FL

10:42 PM EDT on March 22, 2017 (GMT -0400)
Perry

Weather History for K40J - August, 2013

Change the Weather History Date:

Friday, August 30, 2013

  Actual Average (KVLD) Record (KVLD)
Temperature  
Mean Temperature 81 °F -  
Max Temperature 91 °F 88 °F 100 °F (2011)
Min Temperature 71 °F 69 °F 70 °F (2004)
Cooling Degree Days 16    
Growing Degree Days 31 (Base 50)    
Moisture  
Dew Point 72 °F    
Average Humidity 83    
Maximum Humidity 100    
Minimum Humidity 55    
Precipitation  
Precipitation 1.16 in - - ()
Sea Level Pressure  
Sea Level Pressure 29.95 in    
Wind  
Wind Speed 2 mph (West)    
Max Wind Speed 14 mph    
Max Gust Speed 20 mph    
Visibility 8 miles    
Events Rain , Thunderstorm    
Averages and records for this station are not official NWS values.
T = Trace of Precipitation, MM = Missing Value Source: NWS Daily Summary

Daily Weather History Graph

Daily Weather History Graph

Search for Another Location

Airport or City:

Trip Planner

Search our weather history database for the weather conditions in past years. The results will help you decide how hot, cold, wet, or windy it might be!

Date:

Astronomy

Aug. 30, 2013 Rise Set
Actual Time 7:10 AM EDT 7:58 PM EDT
Civil Twilight 6:45 AM EDT 8:23 PM EDT
Nautical Twilight 6:17 AM EDT 8:52 PM EDT
Astronomical Twilight 5:47 AM EDT 9:21 PM EDT
Moon 2:00 AM EDT (8/30) 4:01 PM EDT (8/30)
Length of Visible Light 13h 37m
Length of Day
12h 48m
Waning Crescent, 29% of the Moon is Illuminated
Aug 30
Waning Crescent
Sep 5
New
Sep 12
First Quarter
Sep 19
Full
Sep 26
Last Quarter

Hourly Weather History & Observations

Time (EDT) Temp. Heat Index Dew Point Humidity Pressure Visibility Wind Dir Wind Speed Gust Speed Precip Events Conditions
12:15 AM 77.0 °F - 73.4 °F 89% 29.97 in 10.0 mi Calm Calm - N/A   Clear
12:35 AM 75.2 °F - 71.6 °F 89% 29.97 in 10.0 mi Calm Calm - N/A   Clear
12:53 AM 75.9 °F - 73.0 °F 91% 29.96 in - Calm Calm - N/A   Unknown
12:55 AM 75.2 °F - 73.4 °F 94% 29.97 in 5.0 mi Calm Calm - N/A   Clear
1:15 AM 75.2 °F - 73.4 °F 94% 29.97 in 7.0 mi Calm Calm - N/A   Clear
1:53 AM 77.0 °F - 73.9 °F 90% 29.96 in - Calm Calm - N/A   Unknown
1:55 AM 73.4 °F - 71.6 °F 94% 29.97 in 5.0 mi Calm Calm - N/A   Clear
2:15 AM 73.4 °F - 71.6 °F 94% 29.97 in 5.0 mi Calm Calm - N/A   Clear
2:35 AM 73.4 °F - 71.6 °F 94% 29.97 in 5.0 mi Calm Calm - N/A   Clear
2:53 AM 75.0 °F - 72.0 °F 90% 29.95 in - Calm Calm - N/A   Unknown
2:55 AM 73.4 °F - 71.6 °F 94% 29.97 in 7.0 mi Calm Calm - N/A   Clear
3:15 AM 73.4 °F - 71.6 °F 94% 29.96 in 10.0 mi Calm Calm - N/A   Clear
3:35 AM 73.4 °F - 71.6 °F 94% 29.96 in 10.0 mi Calm Calm - N/A   Clear
3:53 AM 77.0 °F - 71.1 °F 82% 29.94 in - Calm Calm - N/A   Unknown
3:55 AM 73.4 °F - 71.6 °F 94% 29.96 in 10.0 mi Calm Calm - N/A   Clear
4:15 AM 73.4 °F - 71.6 °F 94% 29.96 in 10.0 mi Calm Calm - N/A   Clear
4:35 AM 73.4 °F - 69.8 °F 88% 29.96 in 10.0 mi Calm Calm - N/A   Scattered Clouds
4:53 AM 75.0 °F - 71.1 °F 87% 29.94 in - Calm Calm - N/A   Unknown
4:55 AM 73.4 °F - 69.8 °F 88% 29.96 in 10.0 mi Calm Calm - N/A   Mostly Cloudy
5:15 AM 73.4 °F - 69.8 °F 88% 29.95 in 10.0 mi Calm Calm - N/A   Scattered Clouds
5:35 AM 73.4 °F - 69.8 °F 88% 29.95 in 10.0 mi Calm Calm - N/A   Clear
5:53 AM 75.0 °F - 71.1 °F 87% 29.94 in - Calm Calm - N/A   Unknown
5:55 AM 73.4 °F - 69.8 °F 88% 29.95 in 10.0 mi Calm Calm - N/A   Clear
6:15 AM 71.6 °F - 69.8 °F 94% 29.95 in 10.0 mi Calm Calm - N/A   Clear
6:35 AM 71.6 °F - 69.8 °F 94% 29.95 in 10.0 mi Calm Calm - N/A   Clear
6:53 AM 73.9 °F - 70.0 °F 87% 29.94 in - Calm Calm - N/A   Unknown
6:55 AM 71.6 °F - 69.8 °F 94% 29.96 in 7.0 mi Calm Calm - N/A   Clear
7:15 AM 71.6 °F - 69.8 °F 94% 29.96 in 7.0 mi Calm Calm - N/A   Clear
7:35 AM 71.6 °F - 69.8 °F 94% 29.97 in 7.0 mi Calm Calm - N/A   Clear
7:53 AM 75.0 °F - 71.1 °F 87% 29.96 in - Calm Calm - N/A   Unknown
7:55 AM 73.4 °F - 69.8 °F 88% 29.97 in 7.0 mi Calm Calm - N/A   Mostly Cloudy
8:15 AM 73.4 °F - 71.6 °F 94% 29.98 in 7.0 mi West 3.5 mph - N/A   Overcast
8:35 AM 75.2 °F - 71.6 °F 89% 29.98 in 10.0 mi WNW 3.5 mph - N/A   Overcast
8:53 AM 78.1 °F - 73.0 °F 84% 29.97 in - Calm Calm - N/A   Unknown
8:55 AM 75.2 °F - 71.6 °F 89% 29.99 in 7.0 mi Calm Calm - N/A   Overcast
9:53 AM 82.0 °F 87.9 °F 73.9 °F 76% 29.98 in - NW 4.6 mph - N/A   Unknown
10:15 AM 80.6 °F 85.4 °F 73.4 °F 79% 30.00 in 10.0 mi NNW 3.5 mph - N/A   Mostly Cloudy
10:35 AM 80.6 °F 85.4 °F 73.4 °F 79% 30.00 in 10.0 mi NW 5.8 mph - N/A   Mostly Cloudy
10:53 AM 82.9 °F 89.4 °F 73.9 °F 74% 29.99 in - WNW 5.8 mph - N/A   Unknown
10:55 AM 80.6 °F 85.4 °F 73.4 °F 79% 30.00 in 10.0 mi WNW 5.8 mph - N/A   Overcast
11:15 AM 82.4 °F 88.2 °F 73.4 °F 74% 30.00 in 10.0 mi West 3.5 mph - N/A   Mostly Cloudy
11:35 AM 82.4 °F 88.2 °F 73.4 °F 74% 30.00 in 10.0 mi Calm Calm - N/A   Mostly Cloudy
11:53 AM 86.0 °F 93.8 °F 73.9 °F 67% 29.98 in - West 5.8 mph - N/A   Unknown
11:55 AM 84.2 °F 90.9 °F 73.4 °F 70% 30.00 in 10.0 mi West 5.8 mph - N/A   Mostly Cloudy
12:15 PM 86.0 °F 93.4 °F 73.4 °F 66% 29.99 in 10.0 mi WNW 5.8 mph - N/A   Scattered Clouds
12:35 PM 87.8 °F 93.8 °F 71.6 °F 58% 29.98 in 10.0 mi West 4.6 mph - N/A   Clear
12:53 PM 88.0 °F 95.6 °F 73.0 °F 61% 29.96 in - West 3.5 mph - N/A   Unknown
12:55 PM 87.8 °F 93.8 °F 71.6 °F 58% 29.98 in 10.0 mi Calm Calm - N/A   Scattered Clouds
1:15 PM 87.8 °F 93.8 °F 71.6 °F 58% 29.97 in 10.0 mi West 4.6 mph - N/A   Scattered Clouds
1:35 PM 89.6 °F 96.2 °F 71.6 °F 55% 29.96 in 10.0 mi NW 4.6 mph - N/A   Clear
1:53 PM 91.0 °F 99.3 °F 73.0 °F 55% 29.94 in - West 5.8 mph - N/A   Unknown
1:55 PM 89.6 °F 96.2 °F 71.6 °F 55% 29.95 in 10.0 mi West 5.8 mph - N/A   Mostly Cloudy
2:15 PM 89.6 °F 96.2 °F 71.6 °F 55% 29.95 in 10.0 mi WSW 6.9 mph - N/A   Mostly Cloudy
2:35 PM 89.6 °F 96.2 °F 71.6 °F 55% 29.94 in 10.0 mi West 6.9 mph - N/A   Scattered Clouds
2:53 PM 91.9 °F 101.3 °F 73.9 °F 55% 29.92 in - West 5.8 mph - N/A   Unknown
2:55 PM 89.6 °F 96.2 °F 71.6 °F 55% 29.93 in 10.0 mi West 4.6 mph - N/A   Scattered Clouds
3:15 PM 89.6 °F 96.2 °F 71.6 °F 55% 29.92 in 10.0 mi WSW 9.2 mph - N/A   Scattered Clouds
3:35 PM 89.6 °F 96.2 °F 71.6 °F 55% 29.92 in 10.0 mi West 6.9 mph - N/A   Scattered Clouds
3:53 PM 91.0 °F 102.9 °F 75.9 °F 61% 29.89 in - SW 10.4 mph - N/A   Unknown
3:55 PM 89.6 °F 98.2 °F 73.4 °F 59% 29.91 in 10.0 mi SW 6.9 mph - N/A   Scattered Clouds
4:15 PM 87.8 °F 95.6 °F 73.4 °F 62% 29.90 in 10.0 mi SW 9.2 mph - N/A   Mostly Cloudy
4:35 PM 80.6 °F 84.6 °F 71.6 °F 74% 29.91 in 4.0 mi WSW 8.1 mph - 0.10 in Rain Heavy Rain
4:53 PM 79.0 °F - 72.0 °F 79% 29.89 in - South 8.1 mph - 0.21 in   Unknown
4:55 PM 77.0 °F - 71.6 °F 83% 29.91 in 7.0 mi SSE 8.1 mph - 0.21 in Rain , Thunderstorm Rain
5:15 PM 77.0 °F - 71.6 °F 83% 29.92 in 5.0 mi East 5.8 mph - 0.08 in Rain , Thunderstorm Light Thunderstorms and Rain
5:35 PM 75.2 °F - 71.6 °F 89% 29.90 in 2.5 mi South 5.8 mph - 0.36 in Rain Light Rain
5:53 PM 79.0 °F - 73.9 °F 84% 29.88 in - SSE 5.8 mph - 0.37 in   Unknown
5:55 PM 77.0 °F - 73.4 °F 89% 29.90 in 10.0 mi SSE 4.6 mph - 0.36 in   Scattered Clouds
6:15 PM 78.8 °F - 75.2 °F 89% 29.90 in 10.0 mi South 5.8 mph - N/A   Clear
6:35 PM 80.6 °F 86.2 °F 75.2 °F 84% 29.90 in 7.0 mi Calm Calm - N/A   Clear
6:53 PM 82.0 °F 90.2 °F 77.0 °F 85% 29.88 in - Calm Calm - N/A   Unknown
6:55 PM 78.8 °F - 77.0 °F 94% 29.89 in 5.0 mi Calm Calm - N/A Thunderstorm Clear
7:15 PM 80.6 °F 87.1 °F 77.0 °F 89% 29.90 in 5.0 mi Calm Calm - N/A   Clear
7:35 PM 78.8 °F - 77.0 °F 94% 29.90 in 3.0 mi Calm Calm - N/A Thunderstorm Clear
7:53 PM 81.0 °F 87.9 °F 77.0 °F 88% 29.89 in - Calm Calm - N/A   Unknown
7:55 PM 78.8 °F - 77.0 °F 94% 29.90 in 4.0 mi Calm Calm - N/A Thunderstorm Clear
8:15 PM 78.8 °F - 77.0 °F 94% 29.91 in 3.0 mi Calm Calm - N/A Thunderstorm Mostly Cloudy
8:35 PM 77.0 °F - 73.4 °F 89% 29.92 in 10.0 mi NNE 8.1 mph - N/A Thunderstorm Thunderstorm
8:53 PM 77.0 °F - 72.0 °F 84% 29.93 in - WNW 10.4 mph 17.3 mph N/A   Unknown
8:55 PM 75.2 °F - 71.6 °F 89% 29.94 in 3.0 mi WNW 13.8 mph 19.6 mph 0.08 in Rain , Thunderstorm Heavy Thunderstorms and Rain
9:15 PM 73.4 °F - 71.6 °F 94% 29.94 in 5.0 mi North 6.9 mph - 0.06 in Rain , Thunderstorm Heavy Thunderstorms and Rain
9:35 PM 73.4 °F - 71.6 °F 94% 29.97 in 5.0 mi NE 3.5 mph - 0.15 in Rain , Thunderstorm Thunderstorms and Rain
9:53 PM 75.0 °F - 72.0 °F 90% 29.97 in - Calm Calm - 0.40 in   Unknown
9:55 PM 73.4 °F - 71.6 °F 94% 29.98 in 3.0 mi Calm Calm - 0.23 in Rain , Thunderstorm Heavy Thunderstorms and Rain
10:15 PM 73.4 °F - 71.6 °F 94% 29.99 in 5.0 mi WNW 8.1 mph - 0.03 in Rain , Thunderstorm Light Thunderstorms and Rain
10:35 PM 71.6 °F - 69.8 °F 94% 29.97 in 7.0 mi WSW 5.8 mph - 0.03 in Rain , Thunderstorm Light Thunderstorms and Rain
10:53 PM 73.9 °F - 71.1 °F 91% 29.95 in - NW 5.8 mph - 0.07 in   Unknown
10:55 PM 71.6 °F - 71.6 °F 100% 29.97 in 10.0 mi NW 4.6 mph - 0.04 in Rain , Thunderstorm Rain
11:15 PM 71.6 °F - 71.6 °F 100% 29.97 in 7.0 mi Calm Calm - 0.01 in Rain , Thunderstorm Light Thunderstorms and Rain
11:35 PM 71.6 °F - 71.6 °F 100% 29.96 in 5.0 mi Calm Calm - 0.03 in Rain Light Rain
11:53 PM 75.0 °F - 72.0 °F 90% 29.94 in - Calm Calm - 0.03 in   Unknown
11:55 PM 71.6 °F - 71.6 °F 100% 29.95 in 10.0 mi Calm Calm - 0.03 in Rain Light Rain